EUS6DC LFBD-LEMD

Flight info

Callsign EUS6DC
Flight time 0h 57m
Altitude 33000
Route VAVIX DCT NETUK N857 VASUM DCT BANEV
Aircraft A320/M-SDE3FGHIRWY/LB1

Departure

Time 2026-05-07 15:33
Airport Bordeaux–Mérignac Airport (LFBD)

Arrival

Time 2026-05-07 16:31
Airport Adolfo Suárez Madrid–Barajas Airport (LEMD)
Time Latitude Longitude Altitude Speed Heading
2026-05-07 15:07 44.82850 -0.69911 168 ft 0 kts 17°
2026-05-07 15:24 44.82847 -0.69913 168 ft 3 kts 16°
2026-05-07 15:24 44.82821 -0.69920 168 ft 4 kts 355°
2026-05-07 15:25 44.82796 -0.69910 168 ft 4 kts 319°
2026-05-07 15:25 44.82784 -0.69887 168 ft 0 kts 287°
2026-05-07 15:27 44.82784 -0.69888 168 ft 1 kts 287°
2026-05-07 15:27 44.82789 -0.69912 168 ft 4 kts 287°
2026-05-07 15:27 44.82802 -0.69973 168 ft 8 kts 287°
2026-05-07 15:28 44.82820 -0.70050 168 ft 9 kts 287°
2026-05-07 15:28 44.82832 -0.70144 168 ft 11 kts 261°
2026-05-07 15:28 44.82795 -0.70231 168 ft 12 kts 269°
2026-05-07 15:28 44.82820 -0.70362 167 ft 16 kts 286°
2026-05-07 15:29 44.82854 -0.70521 167 ft 19 kts 287°
2026-05-07 15:29 44.82893 -0.70708 166 ft 21 kts 287°
2026-05-07 15:29 44.82934 -0.70904 165 ft 15 kts 287°
2026-05-07 15:29 44.82907 -0.71026 165 ft 14 kts 227°
2026-05-07 15:30 44.82836 -0.71127 164 ft 16 kts 223°
2026-05-07 15:30 44.82746 -0.71254 164 ft 19 kts 225°
2026-05-07 15:30 44.82659 -0.71376 166 ft 17 kts 225°
2026-05-07 15:30 44.82578 -0.71494 166 ft 17 kts 225°
2026-05-07 15:31 44.82485 -0.71626 166 ft 22 kts 225°
2026-05-07 15:31 44.82366 -0.71796 166 ft 25 kts 225°
2026-05-07 15:31 44.82238 -0.71980 166 ft 27 kts 226°
2026-05-07 15:31 44.82111 -0.72175 167 ft 21 kts 240°
2026-05-07 15:32 44.82083 -0.72364 167 ft 19 kts 287°
2026-05-07 15:32 44.82146 -0.72487 168 ft 13 kts 319°
2026-05-07 15:32 44.82192 -0.72495 168 ft 0 kts 44°
2026-05-07 15:32 44.82200 -0.72484 168 ft 16 kts 44°
2026-05-07 15:33 44.82480 -0.72087 167 ft 93 kts 45°
2026-05-07 15:33 44.83080 -0.71231 166 ft 150 kts 45°
2026-05-07 15:33 44.83838 -0.70155 793 ft 154 kts 47°
2026-05-07 15:33 44.84592 -0.69092 1635 ft 153 kts 47°
2026-05-07 15:34 44.85367 -0.68002 2295 ft 163 kts 47°
2026-05-07 15:34 44.86211 -0.66781 2744 ft 184 kts 47°
2026-05-07 15:34 44.87160 -0.65400 3154 ft 209 kts 48°
2026-05-07 15:34 44.88234 -0.63840 3678 ft 234 kts 47°
2026-05-07 15:35 44.89428 -0.62119 4251 ft 255 kts 46°
2026-05-07 15:35 44.90628 -0.60217 5073 ft 265 kts 57°
2026-05-07 15:35 44.91309 -0.57783 5921 ft 273 kts 82°
2026-05-07 15:35 44.91210 -0.55091 6754 ft 280 kts 108°
2026-05-07 15:36 44.90313 -0.52656 7642 ft 283 kts 132°
2026-05-07 15:36 44.88850 -0.50782 8585 ft 286 kts 142°
2026-05-07 15:36 44.87300 -0.48998 9532 ft 290 kts 143°
2026-05-07 15:36 44.85686 -0.47267 10396 ft 293 kts 150°
2026-05-07 15:37 44.83779 -0.46033 10807 ft 313 kts 166°
2026-05-07 15:37 44.81616 -0.45613 11353 ft 323 kts 182°
2026-05-07 15:37 44.79388 -0.46079 12158 ft 326 kts 198°
2026-05-07 15:37 44.77225 -0.47066 13018 ft 328 kts 199°
2026-05-07 15:38 44.75044 -0.48068 13855 ft 332 kts 199°
2026-05-07 15:38 44.72837 -0.49076 14593 ft 335 kts 199°
2026-05-07 15:38 44.70610 -0.50088 15316 ft 338 kts 199°
2026-05-07 15:38 44.68360 -0.51103 16028 ft 341 kts 199°
2026-05-07 15:39 44.66086 -0.52128 16755 ft 345 kts 199°
2026-05-07 15:39 44.63795 -0.53166 17481 ft 348 kts 199°
2026-05-07 15:39 44.61471 -0.54220 18200 ft 352 kts 199°
2026-05-07 15:39 44.59130 -0.55284 18813 ft 355 kts 199°
2026-05-07 15:40 44.56769 -0.56355 19435 ft 358 kts 199°
2026-05-07 15:40 44.54390 -0.57431 20055 ft 361 kts 199°
2026-05-07 15:40 44.51992 -0.58515 20668 ft 363 kts 199°
2026-05-07 15:40 44.49578 -0.59610 21264 ft 366 kts 199°
2026-05-07 15:41 44.47147 -0.60711 21864 ft 369 kts 199°
2026-05-07 15:41 44.44700 -0.61816 22433 ft 371 kts 199°
2026-05-07 15:41 44.42233 -0.62930 23014 ft 374 kts 199°
2026-05-07 15:41 44.39747 -0.64049 23574 ft 377 kts 199°
2026-05-07 15:42 44.37242 -0.65170 24039 ft 379 kts 198°
2026-05-07 15:42 44.34724 -0.66296 24519 ft 381 kts 199°
2026-05-07 15:42 44.32192 -0.67427 24994 ft 383 kts 199°
2026-05-07 15:42 44.29651 -0.68564 25471 ft 385 kts 199°
2026-05-07 15:43 44.27186 -0.70027 25914 ft 386 kts 209°
2026-05-07 15:43 44.24915 -0.72030 26367 ft 388 kts 213°
2026-05-07 15:43 44.22663 -0.74121 26816 ft 390 kts 213°
2026-05-07 15:43 44.20401 -0.76215 27257 ft 391 kts 213°
2026-05-07 15:44 44.18123 -0.78316 27695 ft 394 kts 213°
2026-05-07 15:44 44.15832 -0.80421 28134 ft 396 kts 213°
2026-05-07 15:44 44.13557 -0.82505 28555 ft 398 kts 213°
2026-05-07 15:44 44.11241 -0.84627 28974 ft 400 kts 213°
2026-05-07 15:45 44.08914 -0.86755 29401 ft 402 kts 213°
2026-05-07 15:45 44.06572 -0.88893 29799 ft 404 kts 213°
2026-05-07 15:45 44.04214 -0.91044 30152 ft 406 kts 213°
2026-05-07 15:45 44.01845 -0.93208 30488 ft 408 kts 213°
2026-05-07 15:46 43.97081 -0.97555 31111 ft 412 kts 213°
2026-05-07 15:46 43.94677 -0.99749 31419 ft 414 kts 213°
2026-05-07 15:46 43.92270 -1.01942 31789 ft 414 kts 213°
2026-05-07 15:47 43.89869 -1.04124 32230 ft 412 kts 213°
2026-05-07 15:47 43.87476 -1.06294 32676 ft 410 kts 213°
2026-05-07 15:47 43.85083 -1.08460 32887 ft 410 kts 213°
2026-05-07 15:47 43.82734 -1.10585 32920 ft 396 kts 213°
2026-05-07 15:48 43.80457 -1.12645 32919 ft 387 kts 213°
2026-05-07 15:48 43.75977 -1.16696 32921 ft 383 kts 213°
2026-05-07 15:49 43.71518 -1.20723 32918 ft 383 kts 213°
2026-05-07 15:49 43.66994 -1.24807 33095 ft 396 kts 213°
2026-05-07 15:49 43.64670 -1.26900 33269 ft 401 kts 213°
2026-05-07 15:50 43.62325 -1.29008 33602 ft 403 kts 212°
2026-05-07 15:50 43.59975 -1.31119 33988 ft 403 kts 212°
2026-05-07 15:50 43.57628 -1.33224 34321 ft 403 kts 213°
2026-05-07 15:50 43.55277 -1.35332 34625 ft 403 kts 213°
2026-05-07 15:51 43.52954 -1.37417 34905 ft 404 kts 213°
2026-05-07 15:51 43.50598 -1.39527 35179 ft 405 kts 213°
2026-05-07 15:51 43.48233 -1.41639 35448 ft 405 kts 213°
2026-05-07 15:51 43.45867 -1.43749 35727 ft 406 kts 213°
2026-05-07 15:52 43.43497 -1.45861 35988 ft 406 kts 213°
2026-05-07 15:52 43.41121 -1.47977 36256 ft 407 kts 213°
2026-05-07 15:52 43.38748 -1.50089 36499 ft 407 kts 213°
2026-05-07 15:52 43.36365 -1.52208 36757 ft 408 kts 213°
2026-05-07 15:53 43.33980 -1.54324 36899 ft 409 kts 214°
2026-05-07 15:53 43.29203 -1.58561 36918 ft 409 kts 213°
2026-05-07 15:54 43.24014 -1.61723 36919 ft 412 kts 195°
2026-05-07 15:54 43.18315 -1.62814 36918 ft 415 kts 189°
2026-05-07 15:55 43.12584 -1.63751 36919 ft 415 kts 189°
2026-05-07 15:55 43.06848 -1.64705 36922 ft 416 kts 189°
2026-05-07 15:56 43.01107 -1.65653 36921 ft 416 kts 189°
2026-05-07 15:56 42.95367 -1.66597 36917 ft 416 kts 189°
2026-05-07 15:57 42.89623 -1.67545 36916 ft 416 kts 189°
2026-05-07 15:57 42.83914 -1.68476 36912 ft 416 kts 189°
2026-05-07 15:58 42.78166 -1.69418 36907 ft 416 kts 189°
2026-05-07 15:58 42.72516 -1.70937 36903 ft 412 kts 202°
2026-05-07 15:59 42.67347 -1.74258 36907 ft 411 kts 208°
2026-05-07 15:59 42.62214 -1.77717 36904 ft 412 kts 208°
2026-05-07 16:00 42.57071 -1.81170 36906 ft 412 kts 208°
2026-05-07 16:00 42.51924 -1.84614 36908 ft 412 kts 208°
2026-05-07 16:01 42.46778 -1.88053 36905 ft 413 kts 208°
2026-05-07 16:01 42.41623 -1.91491 36906 ft 413 kts 208°
2026-05-07 16:02 42.36464 -1.94930 36912 ft 414 kts 208°
2026-05-07 16:02 42.31302 -1.98366 36917 ft 414 kts 208°
2026-05-07 16:03 42.26136 -2.01812 36918 ft 414 kts 208°
2026-05-07 16:03 42.20967 -2.05250 36919 ft 414 kts 208°
2026-05-07 16:04 42.15825 -2.08643 36914 ft 415 kts 208°
2026-05-07 16:04 42.10639 -2.12051 36921 ft 415 kts 208°
2026-05-07 16:05 42.06290 -2.14915 36729 ft 416 kts 208°
2026-05-07 16:05 42.02853 -2.17182 36391 ft 415 kts 208°
2026-05-07 16:05 42.01104 -2.18334 36222 ft 415 kts 208°
2026-05-07 16:05 41.98543 -2.20018 35972 ft 415 kts 207°
2026-05-07 16:06 41.95922 -2.21734 35625 ft 411 kts 207°
2026-05-07 16:06 41.93394 -2.23388 35136 ft 408 kts 207°
2026-05-07 16:06 41.90846 -2.25056 34615 ft 406 kts 207°
2026-05-07 16:06 41.88312 -2.26715 34098 ft 405 kts 207°
2026-05-07 16:07 41.85787 -2.28367 33508 ft 403 kts 207°
2026-05-07 16:07 41.83280 -2.30008 32976 ft 400 kts 207°
2026-05-07 16:07 41.80790 -2.31638 32427 ft 397 kts 207°
2026-05-07 16:07 41.78316 -2.33254 31873 ft 394 kts 207°
2026-05-07 16:08 41.75859 -2.34855 31320 ft 392 kts 207°
2026-05-07 16:08 41.73401 -2.36455 30765 ft 393 kts 206°
2026-05-07 16:08 41.70948 -2.38051 30204 ft 391 kts 206°
2026-05-07 16:08 41.68505 -2.39640 29601 ft 389 kts 206°
2026-05-07 16:09 41.66087 -2.41212 29059 ft 385 kts 206°
2026-05-07 16:09 41.63688 -2.42774 28517 ft 381 kts 206°
2026-05-07 16:09 41.61318 -2.44313 27986 ft 377 kts 206°
2026-05-07 16:09 41.58968 -2.45833 27469 ft 373 kts 206°
2026-05-07 16:10 41.56639 -2.47339 26943 ft 370 kts 206°
2026-05-07 16:10 41.54330 -2.48832 26434 ft 367 kts 206°
2026-05-07 16:10 41.52041 -2.50309 25919 ft 364 kts 206°
2026-05-07 16:10 41.49738 -2.51796 25420 ft 375 kts 206°
2026-05-07 16:11 41.47365 -2.53325 25115 ft 380 kts 206°
2026-05-07 16:11 41.44996 -2.54849 24598 ft 377 kts 205°
2026-05-07 16:11 41.42647 -2.56359 24103 ft 373 kts 205°
2026-05-07 16:11 41.40327 -2.57850 23603 ft 370 kts 205°
2026-05-07 16:12 41.38021 -2.59332 23269 ft 361 kts 205°
2026-05-07 16:12 41.35797 -2.60763 23118 ft 348 kts 205°
2026-05-07 16:12 41.33685 -2.62241 22805 ft 341 kts 213°
2026-05-07 16:12 41.31860 -2.64209 22516 ft 337 kts 225°
2026-05-07 16:13 41.30364 -2.66613 21941 ft 341 kts 233°
2026-05-07 16:13 41.28972 -2.69164 21311 ft 337 kts 233°
2026-05-07 16:13 41.27622 -2.71672 20687 ft 330 kts 233°
2026-05-07 16:13 41.26306 -2.74125 20268 ft 322 kts 233°
2026-05-07 16:14 41.25014 -2.76525 19850 ft 317 kts 234°
2026-05-07 16:14 41.23738 -2.78886 19433 ft 312 kts 234°
2026-05-07 16:14 41.22487 -2.81196 19174 ft 302 kts 234°
2026-05-07 16:14 41.21290 -2.83404 19032 ft 289 kts 233°
2026-05-07 16:15 41.20124 -2.85550 18751 ft 284 kts 233°
2026-05-07 16:15 41.18971 -2.87664 18521 ft 281 kts 234°
2026-05-07 16:15 41.17826 -2.89761 18227 ft 280 kts 234°
2026-05-07 16:15 41.16682 -2.91856 17849 ft 281 kts 234°
2026-05-07 16:16 41.15537 -2.93954 17527 ft 279 kts 234°
2026-05-07 16:16 41.14397 -2.96039 17145 ft 277 kts 233°
2026-05-07 16:16 41.13274 -2.98092 16672 ft 273 kts 233°
2026-05-07 16:16 41.12161 -3.00127 16275 ft 272 kts 233°
2026-05-07 16:17 41.11053 -3.02152 15889 ft 271 kts 233°
2026-05-07 16:17 41.09947 -3.04169 15499 ft 270 kts 233°
2026-05-07 16:17 41.08846 -3.06178 15120 ft 269 kts 233°
2026-05-07 16:17 41.07762 -3.08158 14740 ft 269 kts 233°
2026-05-07 16:18 41.06667 -3.10156 14366 ft 268 kts 233°
2026-05-07 16:18 41.05576 -3.12143 14011 ft 267 kts 233°
2026-05-07 16:18 41.04472 -3.14146 13627 ft 264 kts 233°
2026-05-07 16:18 41.03399 -3.16093 13190 ft 260 kts 233°
2026-05-07 16:19 41.02349 -3.18000 12817 ft 259 kts 233°
2026-05-07 16:19 41.01276 -3.19947 12444 ft 258 kts 233°
2026-05-07 16:19 41.00226 -3.21853 12074 ft 255 kts 233°
2026-05-07 16:19 40.99183 -3.23743 11718 ft 253 kts 233°
2026-05-07 16:20 40.98146 -3.25620 11357 ft 252 kts 233°
2026-05-07 16:20 40.97109 -3.27495 10997 ft 254 kts 233°
2026-05-07 16:20 40.96080 -3.29352 10670 ft 252 kts 233°
2026-05-07 16:20 40.95050 -3.31212 10289 ft 250 kts 233°
2026-05-07 16:21 40.94026 -3.33061 9928 ft 248 kts 233°
2026-05-07 16:21 40.93015 -3.34895 9555 ft 246 kts 233°
2026-05-07 16:21 40.92141 -3.36810 9198 ft 245 kts 247°
2026-05-07 16:21 40.91765 -3.39009 8853 ft 246 kts 266°
2026-05-07 16:22 40.91942 -3.41254 8553 ft 247 kts 281°
2026-05-07 16:22 40.92304 -3.43471 8233 ft 246 kts 279°
2026-05-07 16:22 40.92445 -3.45704 7949 ft 243 kts 263°
2026-05-07 16:22 40.92186 -3.47890 7847 ft 243 kts 258°
2026-05-07 16:23 40.91778 -3.50042 7615 ft 241 kts 245°
2026-05-07 16:23 40.90900 -3.51904 7367 ft 238 kts 226°
2026-05-07 16:23 40.89624 -3.53276 7128 ft 237 kts 210°
2026-05-07 16:23 40.88215 -3.54402 7030 ft 237 kts 211°
2026-05-07 16:24 40.86813 -3.55539 7029 ft 235 kts 211°
2026-05-07 16:24 40.85458 -3.56645 7034 ft 226 kts 211°
2026-05-07 16:24 40.84039 -3.57521 7034 ft 226 kts 193°
2026-05-07 16:24 40.82473 -3.57665 7036 ft 227 kts 180°
2026-05-07 16:25 40.80894 -3.57650 7031 ft 227 kts 180°
2026-05-07 16:25 40.79313 -3.57637 7033 ft 227 kts 180°
2026-05-07 16:25 40.77761 -3.57627 6934 ft 220 kts 180°
2026-05-07 16:25 40.76237 -3.57618 6690 ft 219 kts 180°
2026-05-07 16:26 40.74712 -3.57610 6420 ft 220 kts 180°
2026-05-07 16:26 40.73180 -3.57601 6128 ft 221 kts 180°
2026-05-07 16:26 40.71643 -3.57592 5813 ft 219 kts 180°
2026-05-07 16:26 40.70146 -3.57583 5533 ft 212 kts 180°
2026-05-07 16:27 40.68695 -3.57575 5264 ft 205 kts 179°
2026-05-07 16:27 40.67313 -3.57567 5012 ft 195 kts 180°
2026-05-07 16:27 40.65970 -3.57559 4743 ft 191 kts 179°
2026-05-07 16:27 40.64645 -3.57551 4487 ft 190 kts 179°
2026-05-07 16:28 40.63328 -3.57544 4224 ft 188 kts 179°
2026-05-07 16:28 40.62047 -3.57537 3971 ft 177 kts 179°
2026-05-07 16:28 40.60856 -3.57530 3727 ft 166 kts 179°
2026-05-07 16:28 40.59739 -3.57523 3501 ft 156 kts 179°
2026-05-07 16:29 40.58667 -3.57517 3287 ft 153 kts 179°
2026-05-07 16:29 40.57604 -3.57511 3072 ft 153 kts 179°
2026-05-07 16:29 40.56537 -3.57506 2832 ft 154 kts 180°
2026-05-07 16:29 40.55468 -3.57491 2657 ft 154 kts 179°
2026-05-07 16:30 40.54400 -3.57477 2446 ft 154 kts 178°
2026-05-07 16:30 40.53359 -3.57470 2254 ft 151 kts 178°
2026-05-07 16:30 40.52321 -3.57479 2045 ft 148 kts 177°
2026-05-07 16:30 40.51367 -3.57473 1997 ft 117 kts 180°
2026-05-07 16:31 40.50737 -3.57470 1998 ft 56 kts 180°
2026-05-07 16:31 40.50484 -3.57480 1997 ft 30 kts 190°
2026-05-07 16:31 40.50290 -3.57571 1996 ft 23 kts 209°
2026-05-07 16:31 40.50153 -3.57665 1995 ft 23 kts 204°
2026-05-07 16:32 40.50019 -3.57694 1995 ft 16 kts 179°
2026-05-07 16:32 40.49962 -3.57693 1995 ft 5 kts 179°
2026-05-07 16:32 40.49934 -3.57693 1995 ft 4 kts 180°
2026-05-07 16:32 40.49898 -3.57693 1995 ft 6 kts 180°
2026-05-07 16:33 40.49843 -3.57692 1995 ft 10 kts 180°
2026-05-07 16:33 40.49781 -3.57694 1995 ft 8 kts 187°
2026-05-07 16:33 40.49740 -3.57759 1994 ft 11 kts 269°
2026-05-07 16:33 40.49740 -3.57870 1993 ft 13 kts 267°
2026-05-07 16:34 40.49684 -3.57944 1993 ft 12 kts 201°
2026-05-07 16:34 40.49638 -3.58045 1991 ft 16 kts 231°
2026-05-07 16:34 40.49535 -3.58063 1992 ft 16 kts 180°
2026-05-07 16:34 40.49430 -3.58063 1992 ft 14 kts 180°
2026-05-07 16:35 40.49333 -3.58062 1992 ft 14 kts 179°
2026-05-07 16:35 40.49224 -3.58060 1993 ft 16 kts 179°
2026-05-07 16:35 40.49116 -3.58060 1993 ft 16 kts 180°
2026-05-07 16:35 40.48998 -3.58059 1994 ft 18 kts 180°
2026-05-07 16:36 40.48867 -3.58058 1996 ft 19 kts 180°
2026-05-07 16:36 40.48744 -3.58058 1998 ft 17 kts 179°
2026-05-07 16:36 40.48632 -3.58055 2000 ft 15 kts 178°
2026-05-07 16:36 40.48538 -3.58009 2001 ft 14 kts 145°
2026-05-07 16:37 40.48463 -3.57946 2002 ft 12 kts 148°
2026-05-07 16:37 40.48394 -3.57889 2003 ft 12 kts 146°
2026-05-07 16:37 40.48316 -3.57817 2002 ft 16 kts 144°
2026-05-07 16:37 40.48218 -3.57717 2001 ft 20 kts 141°
2026-05-07 16:38 40.48098 -3.57598 1998 ft 23 kts 144°
2026-05-07 16:38 40.47965 -3.57458 1994 ft 26 kts 142°
2026-05-07 16:38 40.47822 -3.57314 1990 ft 27 kts 143°
2026-05-07 16:38 40.47684 -3.57173 1988 ft 24 kts 142°
2026-05-07 16:39 40.47560 -3.57047 1983 ft 20 kts 143°
2026-05-07 16:39 40.47444 -3.56931 1980 ft 22 kts 142°
2026-05-07 16:39 40.47344 -3.56857 1978 ft 15 kts 191°
2026-05-07 16:39 40.47331 -3.56936 1981 ft 10 kts 313°
2026-05-07 16:40 40.47377 -3.56992 1979 ft 7 kts 288°
2026-05-07 16:40 40.47360 -3.57031 1980 ft 6 kts 230°
2026-05-07 16:40 40.47344 -3.57055 1979 ft 0 kts 229°